Weather History for Stampede Pass, WA

Change the Weather History Date:

Thursday, March 8, 2012

  Actual Average Record
Temperature  
Mean Temperature 32 °F -  
Max Temperature 39 °F 33 °F 61 °F (2005)
Min Temperature 25 °F 25 °F 23 °F (2006)
Degree Days  
Heating Degree Days 33    
Moisture  
Dew Point 26 °F    
Average Humidity 75    
Maximum Humidity 92    
Minimum Humidity 62    
Precipitation  
Precipitation 0.00 in - - ()
Sea Level Pressure  
Sea Level Pressure 30.36 in    
Wind  
Wind Speed 6 mph (East)    
Max Wind Speed 8 mph    
Max Gust Speed -    
Visibility 10 miles    
Events      
Averages and records for this station are not official NWS values.
T = Trace of Precipitation, MM = Missing Value Source: NWS Daily Summary

Daily Weather History Graph

Daily Weather History Graph

Search for Another Location

Airport:

Trip Planner

Search our weather history database for the weather conditions in past years. The results will help you decide how hot, cold, wet, or windy it might be!

Date:

Astronomy

Mar. 08, 2012 Rise Set
Actual Time 6:30 AM PST 6:01 PM PST
Civil Twilight 6:00 AM PST 6:32 PM PST
Nautical Twilight 5:25 AM PST 7:07 PM PST
Astronomical Twilight 4:49 AM PST 7:43 PM PST
Moon 7:03 PM PST (3/8) 6:12 AM PST (3/8)
Length of Visible Light 12h 31m
Length of Day
11h 30m
Full, 100% of the Moon is Illuminated
Mar 8
Full
Mar 14
Last Quarter
Mar 22
New
Mar 30
First Quarter
Apr 6
Full

Hourly Weather History & Observations

Time (PST) Temp. Windchill Dew Point Humidity Pressure Visibility Wind Dir Wind Speed Gust Speed Precip Events Conditions
12:56 AM 27.0 °F 20.5 °F 24.1 °F 89% 30.41 in 10.0 mi Variable 5.8 mph - N/A   Clear
2:56 AM 26.1 °F 18.4 °F 24.1 °F 92% 30.39 in 10.0 mi East 6.9 mph - N/A   Clear
3:56 AM 26.1 °F 20.5 °F 23.0 °F 88% 30.39 in 10.0 mi East 4.6 mph - N/A   Clear
4:56 AM 26.1 °F 18.4 °F 23.0 °F 88% 30.40 in 10.0 mi Variable 6.9 mph - N/A   Clear
5:56 AM 25.0 °F 18.1 °F 21.9 °F 88% 30.40 in 10.0 mi East 5.8 mph - N/A   Clear
7:56 AM 28.9 °F 21.9 °F 23.0 °F 78% 30.39 in 10.0 mi Variable 6.9 mph - N/A   Clear
8:56 AM 30.9 °F 23.5 °F 24.1 °F 76% 30.39 in 10.0 mi East 8.1 mph - N/A   Clear
9:56 AM 33.1 °F 27.7 °F 25.0 °F 72% 30.39 in 10.0 mi Variable 5.8 mph - N/A   Clear
10:56 AM 36.0 °F 29.6 °F 25.0 °F 64% 30.38 in 10.0 mi East 8.1 mph - N/A   Clear
11:56 AM 37.0 °F 31.6 °F 26.1 °F 65% 30.37 in 10.0 mi Variable 6.9 mph - N/A   Clear
12:56 PM 37.9 °F 32.7 °F 26.1 °F 62% 30.34 in 10.0 mi Variable 6.9 mph - N/A   Clear
1:56 PM 39.0 °F 34.0 °F 27.0 °F 62% 30.32 in 10.0 mi Variable 6.9 mph - N/A   Clear
2:56 PM 39.0 °F 34.8 °F 28.0 °F 65% 30.32 in 10.0 mi Variable 5.8 mph - N/A   Clear
3:56 PM 37.9 °F 32.7 °F 28.0 °F 68% 30.31 in 10.0 mi Variable 6.9 mph - N/A   Clear
4:56 PM 37.0 °F 33.3 °F 28.0 °F 70% 30.32 in 10.0 mi Variable 4.6 mph - N/A   Clear
5:56 PM 36.0 °F 32.1 °F 27.0 °F 70% 30.32 in 10.0 mi Variable 4.6 mph - N/A   Clear
6:56 PM 34.0 °F 29.8 °F 28.0 °F 79% 30.32 in 10.0 mi Variable 4.6 mph - N/A   Clear
7:56 PM 33.1 °F 30.0 °F 27.0 °F 78% 30.32 in 10.0 mi Variable 3.5 mph - N/A   Clear
8:56 PM 34.0 °F 31.0 °F 26.1 °F 73% 30.31 in 10.0 mi ESE 3.5 mph - N/A   Clear